EDT,Max TemperatureF,Mean TemperatureF,Min TemperatureF,Max Dew PointF,MeanDew PointF,Min DewpointF,Max Humidity, Mean Humidity, Min Humidity, Max Sea Level PressureIn, Mean Sea Level PressureIn, Min Sea Level PressureIn, Max VisibilityMiles, Mean VisibilityMiles, Min VisibilityMiles, Max Wind SpeedMPH, Mean Wind SpeedMPH, Max Gust SpeedMPH,PrecipitationIn, CloudCover, Events, WindDirDegrees
2012-9-1,81,70,58,64,58,52,100,70,39,30.09,30.01,29.88,10,9,5,13,5,17,0.00,1,,48
2012-9-2,80,66,51,58,53,47,100,66,32,30.13,30.08,30.05,10,10,9,10,2,14,0.00,3,,86
2012-9-3,82,65,47,58,52,46,100,69,37,30.19,30.14,30.08,10,7,1,16,5,23,T,2,,199
2012-9-4,72,66,60,70,63,55,100,82,63,30.10,29.97,29.75,10,8,2,12,1,16,0.30,8,Rain,346
2012-9-5,75,67,58,72,65,59,100,87,73,29.86,29.79,29.64,10,6,0,15,4,20,0.55,5,Fog-Rain,149
2012-9-6,81,70,59,66,63,57,100,79,58,29.90,29.86,29.78,10,6,0,15,4,21,0.00,4,Fog-Thunderstorm,176
2012-9-7,83,70,56,66,59,53,100,69,37,29.95,29.89,29.81,10,4,0,8,1,10,0.00,3,Fog,210
2012-9-8,82,71,59,70,64,60,100,79,58,29.81,29.66,29.43,10,7,0,25,9,36,0.69,4,Fog-Rain-Thunderstorm,194
2012-9-9,70,58,45,59,51,46,100,80,59,29.92,29.83,29.75,10,6,0,9,3,13,0.01,4,Fog-Rain,89
2012-9-10,65,55,45,51,44,39,100,70,40,30.14,30.02,29.94,10,8,1,21,8,32,0.00,3,,327
2012-9-11,70,55,39,51,45,39,100,72,44,30.28,30.22,30.14,10,9,2,10,2,15,0.00,0,,182
2012-9-12,78,59,40,58,47,39,100,70,40,30.36,30.31,30.26,10,4,0,12,3,16,0.00,0,Fog,177
2012-9-13,81,63,44,59,51,45,100,73,45,30.35,30.31,30.23,10,4,0,13,3,15,0.00,0,Fog,176
2012-9-14,80,65,49,60,53,48,100,73,45,30.25,30.20,30.03,10,4,0,12,4,16,0.00,1,Fog,192
2012-9-15,68,56,43,58,48,42,100,70,39,30.13,30.09,30.06,10,10,5,18,5,24,0.05,3,Rain,287
2012-9-16,69,54,39,50,43,39,100,70,39,30.14,30.08,30.01,10,7,0,9,1,12,0.00,1,Fog,155
2012-9-17,76,58,39,55,46,39,100,71,41,30.11,30.05,29.98,10,8,2,13,3,15,0.00,0,,173
2012-9-18,70,59,48,68,61,48,100,95,90,29.99,29.73,29.52,10,4,0,23,6,32,2.29,6,Fog-Rain,165
2012-9-19,65,52,39,58,43,34,100,66,31,30.22,30.01,29.68,10,10,4,14,4,17,0.06,3,Rain,318
2012-9-20,66,51,35,50,40,35,100,73,45,30.27,30.20,30.10,10,4,0,16,3,21,0.00,1,Fog,194
2012-9-21,72,57,42,56,48,42,100,79,57,30.12,30.07,29.99,10,6,0,15,4,20,0.00,2,Fog,194
2012-9-22,72,59,46,61,54,46,100,83,66,29.99,29.89,29.76,10,4,0,21,6,29,0.36,5,Fog-Rain,194
2012-9-23,62,50,37,61,48,37,100,76,51,30.12,29.98,29.83,10,8,1,17,5,24,T,4,Rain,251
2012-9-24,63,48,33,45,38,34,100,70,39,30.17,30.11,30.06,10,4,0,13,3,18,0.00,3,Fog,190
2012-9-25,69,52,34,48,40,34,100,70,40,30.12,30.08,30.05,10,6,1,17,5,24,0.00,0,,191
2012-9-26,66,57,48,61,58,46,100,91,81,30.06,30.01,29.98,10,8,4,12,6,17,0.04,6,Rain,196
2012-9-27,63,52,40,59,48,40,100,72,43,30.25,30.16,30.02,10,9,2,13,6,23,0.00,4,,40
2012-9-28,54,46,38,54,47,38,100,97,93,30.25,30.14,30.02,10,6,1,8,3,10,0.31,6,Rain,353
2012-9-29,57,55,52,55,53,52,100,93,86,30.01,29.95,29.90,10,6,2,12,3,17,0.14,8,Rain,29
2012-9-30,58,55,51,55,53,51,100,93,86,29.92,29.80,29.69,10,7,1,9,3,13,0.35,8,Rain,57